Joplin, MO

10:15 AM CDT on August 18, 2017 (GMT -0500)
Joplin Regional

Weather History for KJLN - August, 2014

Change the Weather History Date:

Friday, August 29, 2014

  Actual Average Record
Temperature  
Mean Temperature 82 °F 78 °F  
Max Temperature 91 °F 89 °F 103 °F (2000)
Min Temperature 73 °F 66 °F 47 °F (1988)
Degree Days  
Heating Degree Days 0 0  
Month to date heating degree days 0 0  
Since 1 June heating degree days 3 5  
Since 1 July heating degree days 1 0  
Cooling Degree Days 17 13  
Month to date cooling degree days 451 434  
Year to date cooling degree days 1297 1405  
Since 1 June cooling degree days 1084 1225  
Growing Degree Days 30 (Base 50)    
Moisture  
Dew Point 66 °F    
Average Humidity 68    
Maximum Humidity 93    
Minimum Humidity 43    
Precipitation  
Precipitation T in 0.12 in 1.83 in (1955)
Month to date precipitation 1.52 3.09  
Year to date precipitation 15.44 30.71  
Sea Level Pressure  
Sea Level Pressure 29.88 in    
Wind  
Wind Speed 11 mph (SSW)    
Max Wind Speed 20 mph    
Max Gust Speed 24 mph    
Visibility 10 miles    
Events      
T = Trace of Precipitation, MM = Missing Value Source: NWS Daily Summary

Daily Weather History Graph

Daily Weather History Graph

Search for Another Location

Airport or City:

Trip Planner

Search our weather history database for the weather conditions in past years. The results will help you decide how hot, cold, wet, or windy it might be!

Date:

Astronomy

Aug. 29, 2014 Rise Set
Actual Time 6:46 AM CDT 7:50 PM CDT
Civil Twilight 6:19 AM CDT 8:17 PM CDT
Nautical Twilight 5:47 AM CDT 8:49 PM CDT
Astronomical Twilight 5:14 AM CDT 9:22 PM CDT
Moon 10:30 AM CDT (8/29) 9:55 PM CDT (8/29)
Length of Visible Light 13h 58m
Length of Day
13h 04m
Waxing Crescent, 15% of the Moon is Illuminated
Aug 29
Waxing Crescent
Sep 2
First Quarter
Sep 8
Full
Sep 15
Last Quarter
Sep 24
New

Hourly Weather History & Observations

Time (CDT) Temp. Heat Index Dew Point Humidity Pressure Visibility Wind Dir Wind Speed Gust Speed Precip Events Conditions
12:53 AM 75.9 °F - 64.0 °F 67% 29.89 in 10.0 mi SSE 10.4 mph - N/A   Clear
1:53 AM 75.0 °F - 63.0 °F 66% 29.87 in 10.0 mi SSE 8.1 mph - N/A   Scattered Clouds
2:53 AM 75.9 °F - 63.0 °F 64% 29.86 in 10.0 mi SSE 8.1 mph - N/A   Scattered Clouds
3:53 AM 75.9 °F - 64.0 °F 67% 29.85 in 10.0 mi SSE 8.1 mph - N/A   Mostly Cloudy
4:53 AM 73.9 °F - 64.0 °F 71% 29.86 in 10.0 mi SSW 6.9 mph - N/A   Partly Cloudy
5:53 AM 73.0 °F - 64.9 °F 76% 29.87 in 10.0 mi SSW 5.8 mph - N/A   Mostly Cloudy
6:53 AM 73.9 °F - 66.0 °F 76% 29.87 in 10.0 mi South 11.5 mph - N/A   Partly Cloudy
7:53 AM 73.0 °F - 68.0 °F 84% 29.88 in 10.0 mi SSE 6.9 mph - 0.00 in   Overcast
8:53 AM 75.0 °F - 68.0 °F 79% 29.88 in 10.0 mi South 8.1 mph - N/A   Overcast
9:53 AM 73.9 °F - 71.1 °F 91% 29.90 in 9.0 mi SSW 8.1 mph - 0.00 in   Overcast
10:53 AM 75.0 °F - 69.1 °F 82% 29.91 in 10.0 mi SW 10.4 mph - 0.00 in   Overcast
10:56 AM 75.0 °F - 69.1 °F 82% 29.94 in 10.0 mi SW 11.5 mph - N/A   Mostly Cloudy
11:35 AM 80.1 °F 82.7 °F 68.0 °F 67% 29.93 in 10.0 mi SSW 8.1 mph - N/A   Mostly Cloudy
11:53 AM 82.0 °F 85.5 °F 69.1 °F 65% 29.89 in 10.0 mi South 13.8 mph - N/A   Mostly Cloudy
12:13 PM 82.9 °F 85.8 °F 68.0 °F 60% 29.92 in 10.0 mi SSW 11.5 mph - N/A   Mostly Cloudy
12:27 PM 84.9 °F 87.6 °F 66.9 °F 55% 29.92 in 10.0 mi SSW 11.5 mph 19.6 mph N/A   Mostly Cloudy
12:53 PM 86.0 °F 88.2 °F 66.0 °F 51% 29.88 in 10.0 mi South 12.7 mph 24.2 mph N/A   Mostly Cloudy
1:53 PM 88.0 °F 89.3 °F 64.0 °F 45% 29.87 in 10.0 mi SW 18.4 mph 24.2 mph N/A   Scattered Clouds
2:53 PM 87.8 °F 88.5 °F 62.6 °F 43% 29.88 in 10.0 mi SW 17.3 mph 23.0 mph N/A   Clear
3:53 PM 87.1 °F 87.5 °F 62.1 °F 43% 29.83 in 10.0 mi SSW 13.8 mph 21.9 mph N/A   Scattered Clouds
4:53 PM 88.0 °F 88.4 °F 62.1 °F 42% 29.83 in 10.0 mi SSW 11.5 mph 19.6 mph N/A   Mostly Cloudy
5:53 PM 88.0 °F 88.7 °F 63.0 °F 43% 29.83 in 10.0 mi SSW 12.7 mph - N/A   Partly Cloudy
7:53 PM 81.0 °F 82.5 °F 64.0 °F 56% 29.85 in 10.0 mi South 12.7 mph - N/A   Clear
8:53 PM 79.0 °F - 63.0 °F 58% 29.86 in 10.0 mi South 9.2 mph - N/A   Clear
9:53 PM 78.8 °F - 64.4 °F 61% 29.90 in 10.0 mi South 12.7 mph - N/A   Clear
10:53 PM 77.0 °F - 66.0 °F 69% 29.89 in 10.0 mi South 11.5 mph - N/A   Clear
11:53 PM 75.0 °F - 66.0 °F 73% 29.89 in 10.0 mi South 9.2 mph - N/A   Clear